www.pogodaiklimat.ru

Погода и климат >> Архив погоды >> Россия >> Хабаровский край >> Тивяку


ПОГОДА в Тивяку

  • Прогноз погоды в Тивяку
  • Монитор погоды в Тивяку

АРХИВ ПОГОДЫ в Тивяку

Время (UTC), дата Ветер
(напр.,м/с)
 
Видим.   Явления Облачность Т
(С)
Тd
(С)
f
(%)
Тe
(С)
Тes
(С)
Комфортность P
(гПа)
Po
(гПа)
Тmin
(С)
Tmax
(С)
R
(мм)
R24
(мм)
S
(см)
15 15.08 штиль 0 20 км слаб. дождь 10/0
[As op]
+15.8 +15.4 97 +16 +16 1005.0 958.5
18 15.08 штиль 0 20 км слаб. дождь 10/0
[As op]
+15.0 +14.6 97 +15 +15 1004.4 957.8
21 15.08 штиль 0 20 км слаб. дождь 10/0 600 м
[As op]
+15.0 +14.6 97 +15 +15 1004.5 957.9 +14.9 7
00 16.08 СВ 1 20 км слаб. дождь 10/0 600 м
[As op]
+15.9 +15.2 96 +17 +19 1003.1 956.8
03 16.08 В 1 20 км слаб. дождь 10/0
[As op]
+15.0 +13.9 93 +15 +19 1002.4 955.9
06 16.08 В 1 50 км {дождь} 10/10 600 м
[Sc]
+16.0 +14.4 90 +17 +17 1000.4 954.2
09 16.08 В 1 50 км {дождь} 10/10 600 м
[Sc]
+15.5 +12.7 83 +16 +16 999.4 953.1 +16.4 2
12 16.08 СВ 1 50 км {дождь} 10/10 600 м
[Sc]
+15.0 +12.1 83 +16 +16 999.2 952.8
15 16.08 В 1 50 км 10/10 600 м
[Sc]
+14.1 +11.1 82 +14 +14 998.1 951.6
18 16.08 В 1 50 км 10/10 600 м
[Sc]
+13.4 +10.4 82 +14 +14 997.9 951.3
21 16.08 штиль 0 50 км 10/10 600 м
[Sc]
+12.6 +11.0 90 +12 +12 998.6 951.8 +12.0
00 17.08 штиль 0 50 км {дождь} 10/10 600 м
[Sc]
+15.0 +11.5 80 +15 +15 999.5 953.1
03 17.08 СВ 1 20 км слаб. дождь 10/10 600 м
[Sc]
+15.3 +13.7 90 +16 +16 1000.7 954.3
06 17.08 СВ 1 20 км слаб. дождь 10/10 600 м
[Sc]
+13.5 +12.7 95 +14 +14 1001.3 954.6
09 17.08 В 1 50 км {дождь} 8/8 600 м
[Sc]
+14.0 +12.7 92 +14 +14 1001.9 955.2 +15.4 2
12 17.08 штиль 0 50 км {дождь} 10/10 600 м
[Sc]
+11.9 +11.3 96 +11 +11 1003.9 956.8
15 17.08 штиль 0 50 км 10/10 600 м
[Sc]
+11.4 +11.0 97 +11 +11 1004.2 957.0
18 17.08 штиль 0 20 км слаб. дождь 10/10 600 м
[Sc]
+11.1 +10.8 98 +10 +10 1005.8 958.4
21 17.08 штиль 0 50 км {дождь} 10/10 600 м
[Sc]
+11.5 +11.1 97 +11 +11 1006.9 959.6 +11.5 0.9
00 18.08 ЮВ 1 20 км слаб. дождь 10/10 600 м
[Sc]
+12.6 +11.9 95 +13 +13 1008.1 960.9 +10.5
03 18.08 штиль 0 50 км {дождь} 10/10 600 м
[Sc]
+14.9 +13.7 93 +15 +15 1008.0 961.2
06 18.08 СВ 1 50 км {дождь} 10/10 600 м
[Sc]
+17.4 +14.9 85 +18 +18 1007.2 960.8
09 18.08 штиль 0 50 км 8/8 600 м
[Cb cap]
+17.4 +15.9 91 +17 +17 1007.4 961.1 +19.0 0.5
12 18.08 штиль 0 50 км 6/6 600 м
[Cb cap]
+13.5 +13.0 97 +13 +13 1010.0 962.9
15 18.08 штиль 0 50 км в посл. час ливневой дождь 8/8 600 м
[Cb cap]
+13.3 +12.9 97 +13 +13 1010.4 963.2
18 18.08 штиль 0 50 км {ливн. осадки} 8/8 600 м
[Cb cap]
+12.6 +12.3 98 +12 +12 1011.2 963.9
21 18.08 штиль 0 н/о н/о +13.1 +12.8 98 +13 +13 1012.7 965.4 +12.2 0.3
00 19.08 В 1 50 км 6/6 600 м
[Cb cap]
+17.4 +14.3 82 +18 +23 1012.7 966.1
03 19.08 ЮЗ 1 50 км 8/8 600 м
[Cb cap]
+22.3 +15.5 65 +26 +29 жарко 1011.4 965.6
06 19.08 З 1 20 км слаб. ливневой дождь 10/10 600 м
[Cb cap]
+18.9 +17.1 89 +21 +21 комфорт 1012.1 965.8
09 19.08 ЮВ 1 50 км {ливн. осадки} 8/8 600 м
[Cb cap]
+19.4 +16.5 83 +22 +23 комфорт 1011.9 965.7 +22.5 0.4
12 19.08 штиль 0 50 км {ливн. осадки} 4/4 600 м
[Cb cap]
+14.7 +14.3 97 +14 +14 1013.7 966.6
15 19.08 штиль 0 50 км 6/3 600 м
[Cb cap Cs]
+12.0 +11.7 98 +11 +11 1014.2 966.6
18 19.08 штиль 0 50 км 6/3 600 м
[Cb cap Cs]
+10.5 +10.3 99 +10 +10 1014.3 966.5
21 19.08 штиль 0 50 км 10/6 600 м
[Cb cap Cs]
+11.7 +11.4 98 +11 +11 1014.0 966.4 +10.5
00 20.08 штиль 0 50 км {ливн. осадки} 10/10 600 м
[Cb cap]
+15.0 +14.7 98 +15 +15 1013.3 966.3
03 20.08 СВ 1 50 км 8/8 600 м
[Cb cap]
+20.5 +16.2 76 +25 +28 комфорт 1011.3 965.3
06 20.08 С 1 50 км 8/8 600 м
[Cb cap]
+21.6 +16.6 73 +25 +27 комфорт 1010.2 964.4
09 20.08 С 1 20 км слаб. ливневой дождь 8/8 600 м
[Cb cap]
+17.7 +16.8 94 +19 +19 1011.3 964.8 +23.0 0.9
12 20.08 штиль 0 50 км {ливн. осадки} 9/9 600 м
[Cb cap]
+15.9 +15.5 97 +16 +16 1012.6 965.8
15 20.08 штиль 0 500 м туман 8/8 600 м
[Cb cap]
+14.8 +14.5 98 +14 +14 1012.6 965.6
18 20.08 штиль 0 500 м туман 6/6 600 м
[Cb cap]
+14.2 +13.9 98 +14 +14 1012.7 965.6
21 20.08 штиль 0 500 м туман 6/6 600 м
[Sc]
+14.0 +13.8 99 +14 +14 1013.2 966.0 +13.7 0.3
00 21.08 штиль 0 50 км {туман} 10/10 600 м
[Sc]
+17.5 +15.7 89 +17 +17 1012.8 966.2
03 21.08 ЮВ 2 50 км 8/8 600 м
[Cb cap]
+19.8 +14.0 69 +22 +25 комфорт 1011.9 965.7
06 21.08 Ю 1 50 км 8/8 600 м
[Cb cap]
+19.4 +14.1 71 +22 +24 комфорт 1010.7 964.5
09 21.08 Ю 1 50 км 10/10 600 м
[Cb cap]
+17.4 +13.2 76 +18 +18 1011.3 964.7 +20.5
12 21.08 штиль 0 50 км 10/3 600 м
[Cb cap As op]
+14.6 +12.3 86 +14 +14 1012.7 965.6
15 21.08 Ю 1 50 км 10/3 600 м
[Cb cap As op]
+13.3 +11.6 89 +13 +13 1012.8 965.5
18 21.08 штиль 0 50 км 10/10 600 м
[Sc]
+11.9 +11.4 97 +11 +11 1012.7 965.2
21 21.08 штиль 0 50 км 10/10 600 м
[Sc]
+12.1 +11.7 97 +11 +11 1013.1 965.6 +11.4
00 22.08 штиль 0 20 км слаб. дождь 10/10 600 м
[Sc]
+14.0 +12.6 91 +14 +14 1012.8 965.6
03 22.08 штиль 0 50 км в посл. час дождь 10/10 600 м
[Sc]
+15.0 +13.4 90 +15 +15 1012.7 965.7
06 22.08 В 1 50 км {дождь} 10/10 600 м
[Sc]
+16.4 +14.4 88 +17 +17 1011.5 964.8
09 22.08 Ю 1 50 км 8/8 600 м
[Sc]
+15.8 +11.5 76 +17 +17 1011.9 965.1 +17.1 1

 

Местоположение метеостанции Тивяку (Хабаровский край, Россия): широта 48.60 долгота 137.00 высота над уровнем моря 403 м.

В архиве по умолчанию представлена погода в Тивяку за последнюю неделю. Архивные данные за месяц целиком и за предыдущие месяцы, начиная с января 2011 года, Вы можете получить, выбрав интересующий диапазон дат из раскрывающегося списка и нажав кнопку "Ввод!".


*Определитесь, кто Вы:
робот инопланетянин человек

Внимание! Время в таблицах - всемирное. Для получения местного времени необходимо прибавить поправку, которая равна 10 ч.

Смотрите также архив погоды в соседних городах и на ближайших метеорологических станциях:

Погода в Елабуге (Хабаровский край, Россия) (91 км)
Погода в Солекуль (Хабаровский край, Россия) (97 км)
Погода в Троицком (Хабаровский край, Россия) (100 км)
Погода в Сукпае (Хабаровский край, Россия) (107 км)
Погода в Князе-Волконском (Хабаровский край, Россия) (113 км)
Погода в Оборе (Хабаровский край, Россия) (117 км)
Погода в Хабаровске 21 км (Хабаровский край, Россия) (122 км)
Погода в Гвасюгах (Хабаровский край, Россия) (123 км)
Погода в Хабаровске Аэр. Большой (Хабаровский край, Россия) (139 км)
Погода в Бичевой (Хабаровский край, Россия) (139 км)

Пояснения к столбцам:

Ветер - указаны скорость ветра в м/с - средняя за 10 мин, порывы в срок и между сроками (в фигурных скобках) и направление, откуда дует ветер: С - северный, СВ - северо-восточный, В - восточный, ЮВ - юго-восточный, Ю - южный, ЮЗ - юго-западный, З - западный, СЗ - северо-западный.
Видимость - горизонтальная дальность видимости в метрах или километрах. При видимости от 1 до 10 км при отсутствии осадков обычно наблюдается дымка, при ухудшении видимости до 1 км и менее - туман. В сухую погоду видимость может ухудшаться дымом, пылью или мглою.
Явления - указаны атмосферные явления, наблюдавшиеся в срок или в последний час перед сроком; фигурными скобками обозначены явления, наблюдавшиеся между сроками (за 1-3 часа до срока); квадратными скобками обозначены град или гололедные отложения с указанием их диаметра в мм.
Облачность - указаны через наклонную черту общая и нижняя облачность в баллах и высота нижней границы облаков в метрах; квадратными скобками обозначены формы облаков: Ci - перистые, Cs - перисто-слоистые, Cc - перисто-кучевые, Ac - высококучевые, As - высокослоистые, Sc - слоисто-кучевые, Ns - слоисто-дождевые, Cu - кучевые, Cb - кучево-дождевые. Подробнее классификацию облаков см. в Атласе облаков (PDF).
T - Температура воздуха - температура, измеренная на высоте 2 м над землей.
Td - Температура точки росы - температура, при понижении до которой содержащийся в воздухе водяной пар достигнет насыщения.
f - Относительная влажность воздуха - влажноcть воздуха, измеренная на высоте 2 м над землей.
Te - Эффективная температура - температура, которую ощущает одетый по сезону человек в тени. Характеристика душности погоды. При расчете учитывается влияние влажности воздуха и скорости ветра на теплоощущения человека.
Tes - Эффективная температура на солнце - температура, которую ощущает человек, с поправкой на солнечный нагрев. Характеристика знойности погоды. Зависит от высоты солнца над горизонтом, облачности и скорости ветра. Ночью, в пасмурную погоду, а также при ветре 12 м/с и более поправка равна нулю.
P - Атмосферное давление - приведенное к уровню моря атмосферное давление.
Po - Атмосферное давление - измеренное на уровне метеостанции атмосферное давление.
Tmin - Минимальная температура - минимум температуры воздуха на высоте 2 м над землей.
Tmax - Максимальная температура - максимум температуры воздуха на высоте 2 м над землей.
R - Количество осадков - Количество выпавших осадков за период времени, мм. При наведении курсора мыши на число - период времени, за который выпало указанное количество осадков.
R24 - Количество осадков - Количество выпавших осадков за 24 часа, мм.
S - Снежный покров - Высота снежного покрова, см. При наведении курсора мыши на число - состояние снежного покрова и степень покрытия местности в баллах.